Probability
0 2 5 7 6 6 6 6 6 6 5 3 1 1 3 3 3 3 3 2 1 0 0 0 0 0 0 0 0 0 0 0 0 0 0 0 0 0 0 0 0 0 0
0 2 6 7 6 6 6 6 6 6 6 4 2 2 3 3 3 3 3 2 1 0 0 0 0 0 0 0 0 0 0 0 0 0 0 0 0 0 0 0 0 0 0
0 2 5 6 6 6 6 6 6 6 6 5 5 4 3 3 3 3 3 3 1 0 0 0 1 1 1 1 0 0 0 0 0 0 0 0 0 0 0 0 0 0 0
0 1 4 6 7 7 7 7 6 6 6 6 7 6 4 3 3 3 3 3 2 1 1 0 1 2 2 2 1 0 0 0 0 0 0 0 0 0 0 0 0 0 0
0 1 3 6 9 9 9 8 7 7 6 7 7 7 4 3 3 3 3 3 3 3 2 1 0 1 3 3 2 1 0 0 0 0 0 0 0 0 0 0 0 0 0
1 1 3 6 9 10 10 9 8 8 7 7 7 6 5 4 3 3 3 3 3 3 2 1 0 1 2 3 3 2 1 0 0 0 0 0 0 0 0 0 0 0 0
1 2 3 6 9 9 9 9 9 9 9 8 8 7 6 6 5 4 3 3 3 3 2 1 0 1 2 3 3 3 2 1 0 0 0 0 0 0 0 0 0 0 0
1 2 5 7 8 8 8 9 9 10 10 9 9 9 8 9 8 6 4 4 3 3 3 1 1 1 2 3 3 3 2 1 0 0 0 0 0 0 0 0 0 0 0
2 4 6 8 7 6 7 9 9 10 10 10 10 10 9 9 9 7 5 4 4 4 4 3 2 1 2 3 3 3 2 1 0 0 0 1 1 1 0 0 0 0 0
5 5 7 8 7 6 7 9 9 10 9 9 9 9 8 8 8 6 5 4 3 4 6 6 4 2 2 3 3 3 2 1 0 0 1 1 2 2 1 0 0 0 0
5 5 7 8 8 8 8 9 9 9 8 8 7 7 7 7 6 5 3 2 3 4 5 6 4 2 1 2 3 2 2 1 1 1 2 3 3 3 1 0 0 0 0
2 3 5 7 8 9 9 10 9 9 8 8 7 7 7 7 6 5 3 1 1 2 3 4 3 2 0 1 2 3 3 2 2 2 3 3 3 3 2 1 0 0 0
0 1 2 4 6 7 9 10 10 10 10 9 9 9 8 7 7 7 5 3 1 2 2 3 3 2 1 1 3 5 5 4 4 4 3 3 3 3 3 2 1 0 0
0 1 1 2 3 5 7 9 11 11 10 10 10 9 8 8 8 9 7 4 3 3 3 3 4 2 1 1 3 6 6 6 7 6 4 2 2 3 3 2 1 0 0
1 1 2 1 2 4 6 8 10 11 10 9 9 9 8 8 9 8 7 5 3 2 2 3 3 2 2 3 5 6 7 7 7 7 4 1 1 2 3 2 1 0 0
0 1 2 2 2 3 4 7 10 11 10 9 9 9 8 7 7 6 4 4 3 2 1 1 1 2 3 4 5 6 7 7 5 4 3 1 0 1 2 2 1 0 1
0 1 2 2 2 3 4 6 9 10 10 9 9 8 6 5 4 3 2 2 2 2 2 1 0 1 3 4 4 3 4 4 2 1 1 0 0 0 1 1 1 0 1
0 0 1 1 1 1 2 5 8 9 10 10 9 8 5 3 2 1 0 1 2 2 2 1 0 1 2 3 2 1 1 1 1 0 0 0 0 0 0 0 0 0 1
0 0 0 0 0 0 1 3 6 9 10 10 9 7 3 1 1 0 0 0 1 2 1 0 0 1 3 3 2 1 0 0 0 0 0 0 0 0 0 0 0 0 0
0 0 0 0 0 1 1 2 4 7 9 9 9 6 2 0 0 0 0 0 1 1 1 0 0 2 3 3 2 0 0 0 0 0 0 0 0 0 0 0 0 0 0
0 0 0 0 0 1 2 2 3 6 8 8 7 5 2 0 0 0 0 0 0 0 0 0 0 1 2 2 2 0 0 0 0 0 0 0 0 0 0 0 0 0 0
0 0 0 0 0 1 2 3 4 5 7 7 7 5 3 1 0 0 0 0 0 0 0 0 0 0 1 1 1 0 0 0 0 0 0 0 0 0 0 0 0 0 0
0 0 0 0 0 0 1 3 4 5 6 6 6 6 4 2 1 1 1 2 1 1 0 0 0 0 0 0 0 0 0 0 0 0 0 0 0 0 0 0 0 0 0
0 0 0 0 0 0 1 2 3 4 5 6 6 6 5 4 3 2 3 3 3 2 1 0 0 0 0 0 0 0 0 0 0 0 0 0 0 0 0 0 0 0 0
0 0 0 0 0 0 0 1 2 3 4 6 6 6 6 5 4 3 3 3 3 2 1 0 0 0 0 0 0 0 0 0 0 0 0 0 0 0 0 0 0 0 0
0 0 0 0 0 0 0 0 1 3 4 6 6 6 6 6 4 3 3 3 3 1 0 0 0 0 0 0 0 0 0 0 0 0 0 0 0 0 0 0 0 0 0
Wind_Speed
7 7 9 7 8 8 7 7 7 7 7 6 7 7 7 7 6 6 6 6 7 7 8 9 9 9 9 10 10 11 11 11 11 10 10 11 11 12 11 9 9 10 13
7 8 9 8 8 8 8 7 7 7 6 7 6 6 6 6 6 6 6 6 6 7 8 8 9 9 9 9 10 10 10 10 10 8 8 9 9 10 10 9 8 10 12
8 8 9 8 8 8 8 7 6 6 6 6 6 6 6 6 6 5 5 6 6 7 7 8 8 8 9 9 9 9 10 9 8 5 4 7 9 9 10 10 10 12 12
8 7 8 8 7 7 7 7 6 6 6 6 6 6 6 6 6 5 5 6 6 6 7 7 8 8 8 8 9 9 9 9 6 2 4 6 7 9 9 10 10 11 11
7 7 7 7 7 7 7 7 6 5 5 5 5 5 5 5 5 5 5 6 6 6 6 7 7 7 7 8 8 8 8 7 4 3 5 5 6 8 9 9 10 11 11
7 6 7 6 7 7 7 6 6 5 5 5 5 5 4 4 4 4 5 6 6 6 6 7 7 6 6 7 7 7 7 4 3 4 4 5 6 8 8 9 9 10 11
6 6 7 6 6 7 6 6 5 5 4 4 4 4 4 4 4 4 6 6 6 6 6 6 6 6 6 7 7 7 6 2 2 4 4 4 5 7 8 9 9 10 10
5 5 6 7 6 6 5 5 4 4 4 4 4 4 3 3 4 4 5 6 6 6 6 6 6 6 6 7 7 6 4 1 3 4 4 4 6 6 8 9 9 10 10
5 5 5 6 6 6 5 4 4 4 4 4 4 4 3 3 3 3 4 5 5 6 6 6 6 6 6 6 6 6 4 0 2 3 3 3 5 6 7 8 9 9 9
4 4 4 4 5 5 5 5 4 4 3 4 4 4 4 3 3 3 3 4 4 5 5 6 6 6 6 6 6 5 3 3 3 3 2 4 5 5 7 8 8 9 8
4 3 4 4 4 4 4 4 4 4 4 4 4 4 3 3 4 4 3 3 3 4 4 5 5 5 5 5 5 4 4 3 3 2 2 4 5 5 6 7 7 8 8
4 3 3 4 4 4 3 3 3 3 4 4 3 4 3 2 2 2 5 4 4 4 4 4 5 5 4 4 4 4 3 3 2 2 3 3 4 5 6 7 7 8 7
5 3 3 3 4 4 3 3 2 2 2 3 3 3 3 3 2 2 2 3 3 3 3 4 5 4 3 3 3 3 3 2 2 2 3 3 3 5 5 6 7 7 7
4 4 3 3 4 4 4 3 3 2 2 2 3 3 3 2 2 2 1 2 2 2 2 2 2 3 3 3 3 3 4 2 2 1 3 3 2 3 5 6 6 7 7
4 4 3 3 4 4 4 3 3 3 3 2 2 3 3 2 2 2 2 2 1 1 2 2 2 3 3 3 2 3 3 3 3 2 2 3 2 2 4 5 5 7 7
5 4 4 4 4 4 4 3 3 3 3 3 2 3 3 3 2 2 2 2 2 1 2 2 2 2 2 2 2 2 2 2 2 2 2 4 4 2 3 5 5 5 6
5 4 4 4 4 4 4 4 3 3 3 3 3 3 3 3 3 3 2 2 2 2 2 2 2 2 2 2 2 2 1 2 2 2 1 1 2 3 3 3 4 5 6
5 4 4 3 4 4 4 4 3 3 3 3 3 2 3 3 3 3 2 2 2 2 2 2 2 2 2 2 1 1 1 1 2 2 1 1 1 1 2 3 3 4 5
5 5 5 4 4 4 4 3 3 3 3 2 2 2 2 3 3 2 2 2 2 2 2 2 2 2 2 2 2 1 1 1 1 1 1 1 1 1 1 2 2 2 3
4 4 4 4 4 4 3 3 3 3 2 2 2 2 3 3 3 2 2 3 3 2 2 2 3 2 2 2 2 1 1 0 0 1 1 1 1 1 1 1 2 2 2
4 4 4 4 4 3 3 3 3 3 2 2 2 2 3 3 3 3 2 3 3 3 3 3 3 3 2 2 2 1 1 1 0 0 1 1 1 1 1 1 1 1 1
4 4 3 4 4 4 4 3 3 3 2 2 2 2 2 3 3 3 3 2 3 2 3 4 3 2 1 2 2 2 1 1 1 0 0 1 1 1 2 1 1 1 1
3 4 3 4 4 4 4 3 3 3 2 2 2 2 2 2 3 3 3 3 3 3 3 4 4 4 3 2 1 2 2 2 1 1 1 1 1 2 2 2 2 2 2
3 3 4 4 4 4 4 4 5 4 4 4 3 2 2 2 3 3 3 3 3 3 3 3 3 3 4 3 2 1 1 0 2 1 2 1 2 2 2 2 2 2 1
2 2 3 3 3 3 4 5 5 4 3 3 3 4 3 2 2 2 3 3 3 3 3 3 3 3 3 4 3 2 1 1 2 2 2 2 2 2 2 2 2 2 2
2 2 2 3 3 3 3 4 4 5 5 5 5 4 3 2 2 2 2 2 3 3 3 3 4 4 4 4 3 3 3 2 3 2 3 2 2 2 2 2 2 2 2
Wind_Direction
153 152 142 142 138 133 126 121 122 119 115 116 116 117 116 113 110 106 106 105 104 105 102 100 99 97 95 95 99 98 94 90 89 89 88 90 92 95 96 98 102 97 94
145 149 141 146 144 138 132 125 123 124 121 118 119 121 121 121 119 114 113 110 108 108 108 106 105 100 97 96 97 98 96 92 90 89 98 102 93 95 95 86 81 96 100
144 147 148 146 145 141 136 131 127 126 123 121 121 123 124 122 125 121 122 120 115 111 109 110 107 104 102 99 99 97 96 95 90 91 126 114 105 99 101 96 94 102 103
142 146 146 139 143 141 139 137 135 130 128 125 124 127 127 128 127 126 126 125 118 112 111 109 108 106 107 105 102 100 97 94 92 116 121 104 108 106 107 106 105 103 105
141 144 133 135 138 138 140 139 137 134 132 130 125 125 127 129 128 128 130 126 120 112 111 111 111 111 110 109 107 105 102 97 104 142 104 104 104 108 111 111 110 107 107
142 143 133 134 137 136 136 138 138 133 131 135 133 133 131 129 125 126 134 128 123 123 122 117 117 119 116 115 114 111 106 106 158 119 111 110 107 110 112 112 111 108 107
143 142 140 135 137 136 137 137 140 137 133 142 143 139 136 132 128 124 131 134 136 137 132 125 123 124 122 122 119 115 108 105 144 118 115 112 101 112 118 117 115 112 108
143 143 141 135 131 128 131 136 132 132 130 132 139 141 140 132 124 128 130 139 141 141 138 134 129 128 126 125 121 115 109 158 146 124 120 114 95 117 123 121 119 116 112
147 149 149 151 146 135 126 126 126 123 121 118 118 111 111 116 118 130 126 138 144 141 140 140 135 131 129 125 121 115 108 219 165 131 125 111 107 126 129 126 124 121 117
151 155 157 160 163 161 154 130 131 130 120 115 106 97 99 116 125 123 141 135 146 145 139 141 141 133 126 120 120 122 132 201 170 146 139 111 118 139 137 132 131 126 122
160 165 170 174 177 169 164 150 156 147 135 142 134 123 146 159 159 151 129 115 135 142 143 142 140 132 126 122 119 133 175 187 161 153 132 100 132 141 141 139 137 133 130
187 186 186 186 186 183 178 174 178 177 166 173 166 159 164 148 129 127 101 97 103 115 134 135 136 149 173 160 147 177 185 182 167 155 115 108 149 149 146 146 145 142 139
196 198 203 198 197 195 187 186 180 174 170 175 173 165 162 148 147 143 137 139 141 150 155 152 174 181 186 175 178 182 183 184 176 157 124 122 164 162 152 152 153 150 144
201 206 208 205 201 202 196 188 186 179 176 173 173 174 173 161 162 156 160 161 160 164 165 174 185 177 184 185 186 184 179 180 177 162 118 119 161 160 153 152 154 157 149
199 203 210 213 205 199 197 193 191 189 184 178 183 188 186 179 174 171 169 157 163 164 167 171 177 172 180 181 182 189 181 181 176 169 140 125 142 149 156 158 156 155 154
210 205 204 212 210 200 198 198 198 192 185 188 185 192 192 188 179 176 176 167 168 173 171 177 174 174 182 171 173 178 176 167 164 164 152 139 129 129 150 166 164 158 157
214 209 206 209 209 204 200 201 199 189 189 187 182 190 193 194 184 178 178 176 171 164 168 171 173 176 157 152 155 147 144 153 157 152 152 155 145 129 132 155 165 163 161
212 209 210 209 207 206 202 201 196 190 185 182 180 183 189 186 183 177 181 182 182 171 168 172 177 168 161 155 144 127 142 149 163 152 157 162 154 150 140 128 140 157 162
211 209 208 208 208 206 201 195 184 181 182 178 176 175 176 167 171 175 177 179 185 174 168 174 170 164 157 146 129 111 107 152 167 175 169 171 159 161 161 126 125 137 149
206 207 206 209 212 203 189 180 173 172 172 172 173 171 168 165 167 171 176 179 176 171 172 175 163 152 146 138 123 86 56 42 222 199 189 184 174 170 167 151 157 147 137
194 199 199 202 205 200 191 185 180 180 173 169 165 168 173 168 166 168 175 176 183 180 178 176 170 155 148 149 140 117 56 60 61 266 218 206 179 171 164 166 183 195 169
192 197 200 204 203 201 197 191 188 177 174 166 163 163 168 170 171 172 176 175 187 182 178 176 173 168 170 189 178 177 189 191 188 316 302 234 217 190 182 190 205 211 214
199 200 200 202 202 200 196 181 168 158 151 159 168 164 172 177 170 171 181 177 186 187 190 190 191 189 183 192 204 209 199 209 199 185 221 236 242 224 208 205 216 220 219
203 198 195 190 189 190 188 186 181 182 179 180 174 168 167 169 162 166 178 182 187 193 196 195 201 204 189 189 185 271 294 261 208 202 197 217 244 241 233 226 223 216 213
184 183 181 173 174 178 187 190 189 188 182 174 170 166 162 159 159 165 174 183 191 198 200 196 196 202 202 197 190 192 199 266 249 231 235 231 235 242 249 246 238 226 222
132 148 166 169 167 169 180 186 189 184 178 175 173 169 165 160 158 167 178 183 191 199 201 204 203 204 204 199 195 200 200 200 204 220 237 251 252 248 249 252 245 238 233